Perry, IA

7:21 PM CDT on June 24, 2017 (GMT -0500)
Perry Municipal

Weather History for KPRO - January, 2014

Change the Weather History Date:

Friday, January 24, 2014

  Actual Average Record
Temperature  
Mean Temperature 22 °F -  
Max Temperature 43 °F 31 °F 59 °F (1981)
Min Temperature 2 °F 9 °F -15 °F (1960)
Degree Days  
Heating Degree Days 42    
Moisture  
Dew Point 12 °F    
Average Humidity 55    
Maximum Humidity 78    
Minimum Humidity 44    
Precipitation  
Precipitation 0.00 in - - ()
Sea Level Pressure  
Sea Level Pressure 29.90 in    
Wind  
Wind Speed 17 mph (WSW)    
Max Wind Speed 26 mph    
Max Gust Speed 32 mph    
Visibility 10 miles    
Events      
Averages and records for this station are not official NWS values.
T = Trace of Precipitation, MM = Missing Value Source: NWS Daily Summary

Daily Weather History Graph

Daily Weather History Graph

Search for Another Location

Airport or City:

Trip Planner

Search our weather history database for the weather conditions in past years. The results will help you decide how hot, cold, wet, or windy it might be!

Date:

Astronomy

Jan. 24, 2014 Rise Set
Actual Time 7:36 AM CST 5:21 PM CST
Civil Twilight 7:06 AM CST 5:51 PM CST
Nautical Twilight 6:32 AM CST 6:25 PM CST
Astronomical Twilight 5:59 AM CST 6:58 PM CST
Moon 1:02 AM CST (1/24) 11:42 AM CST (1/24)
Length of Visible Light 10h 45m
Length of Day
9h 45m
Last Quarter, 44% of the Moon is Illuminated
Jan 24
Last Quarter
Jan 30
New
Feb 6
First Quarter
Feb 14
Full
Feb 22
Last Quarter

Hourly Weather History & Observations

Time (CST) Temp. Windchill Dew Point Humidity Pressure Visibility Wind Dir Wind Speed Gust Speed Precip Events Conditions
12:15 AM 2.8 °F -12.7 °F -5.6 °F 68% 30.43 in 10.0 mi South 10.4 mph - N/A   Clear
12:35 AM 2.3 °F -11.4 °F -5.8 °F 69% 30.43 in 10.0 mi SSW 8.1 mph - N/A   Clear
1:15 AM 4.5 °F -11.5 °F -4.9 °F 65% 30.37 in 10.0 mi South 11.5 mph - N/A   Clear
1:55 AM 7.0 °F -10.4 °F -3.8 °F 61% 30.33 in 10.0 mi SSW 15.0 mph - N/A   Clear
2:15 AM 7.5 °F -9.7 °F -3.6 °F 60% 30.31 in 10.0 mi SSW 15.0 mph - N/A   Clear
2:35 AM 7.7 °F -7.4 °F -3.6 °F 60% 30.30 in 10.0 mi SSW 11.5 mph - N/A   Clear
2:55 AM 9.3 °F -6.8 °F -3.5 °F 56% 30.28 in 10.0 mi SSW 13.8 mph - N/A   Clear
3:15 AM 13.1 °F -5.5 °F -3.3 °F 48% 30.26 in 10.0 mi SW 21.9 mph 25.3 mph N/A   Clear
3:35 AM 14.0 °F -4.7 °F -3.5 °F 46% 30.23 in 10.0 mi SW 23.0 mph 32.2 mph N/A   Clear
3:55 AM 13.8 °F -4.1 °F -2.7 °F 48% 30.22 in 10.0 mi SW 20.7 mph 28.8 mph N/A   Clear
4:15 AM 13.8 °F -4.1 °F -2.4 °F 49% 30.19 in 10.0 mi SW 20.7 mph 28.8 mph N/A   Clear
4:35 AM 13.6 °F -3.9 °F -1.8 °F 50% 30.17 in 10.0 mi SW 19.6 mph - N/A   Clear
4:55 AM 14.2 °F -2.7 °F -0.6 °F 52% 30.15 in 10.0 mi SW 18.4 mph 24.2 mph N/A   Clear
5:15 AM 14.9 °F -2.3 °F -0.0 °F 52% 30.13 in 10.0 mi SW 19.6 mph 23.0 mph N/A   Clear
5:35 AM 15.8 °F -0.2 °F 0.9 °F 52% 30.12 in 10.0 mi SW 17.3 mph 24.2 mph N/A   Clear
5:55 AM 16.3 °F -0.4 °F 1.0 °F 51% 30.10 in 10.0 mi SW 19.6 mph 23.0 mph N/A   Clear
6:15 AM 16.3 °F 0.1 °F 1.4 °F 52% 30.08 in 10.0 mi SW 18.4 mph 23.0 mph N/A   Clear
6:35 AM 16.7 °F 1.5 °F 1.9 °F 52% 30.06 in 10.0 mi SW 16.1 mph 25.3 mph N/A   Clear
6:55 AM 16.9 °F -0.1 °F 2.5 °F 53% 30.04 in 10.0 mi SW 20.7 mph 28.8 mph N/A   Scattered Clouds
7:15 AM 17.6 °F 0.1 °F 3.2 °F 53% 30.01 in 10.0 mi SW 23.0 mph 32.2 mph N/A   Mostly Cloudy
7:35 AM 17.8 °F 2.4 °F 3.7 °F 54% 30.03 in 10.0 mi SW 17.3 mph 26.5 mph N/A   Scattered Clouds
7:55 AM 17.8 °F 2.4 °F 4.6 °F 57% 30.01 in 10.0 mi SW 17.3 mph 25.3 mph N/A   Scattered Clouds
8:15 AM 18.3 °F 1.0 °F 5.4 °F 57% 29.99 in 10.0 mi SW 23.0 mph 28.8 mph N/A   Mostly Cloudy
8:35 AM 19.0 °F 2.0 °F 5.7 °F 56% 29.98 in 10.0 mi SW 23.0 mph 28.8 mph N/A   Overcast
8:55 AM 19.9 °F 3.5 °F 7.0 °F 57% 29.97 in 10.0 mi SW 21.9 mph 31.1 mph N/A   Mostly Cloudy
9:15 AM 20.7 °F 4.1 °F 7.0 °F 56% 29.98 in 10.0 mi WSW 23.0 mph 31.1 mph N/A   Overcast
9:35 AM 21.2 °F 5.2 °F 7.3 °F 55% 29.97 in 10.0 mi WSW 21.9 mph 32.2 mph N/A   Overcast
9:55 AM 21.7 °F 4.9 °F 7.9 °F 55% 29.96 in 10.0 mi WSW 25.3 mph 29.9 mph N/A   Overcast
10:15 AM 23.2 °F 7.1 °F 9.9 °F 57% 29.95 in 10.0 mi WSW 24.2 mph 31.1 mph N/A   Overcast
10:35 AM 23.5 °F 8.0 °F 9.9 °F 56% 29.92 in 10.0 mi WSW 23.0 mph 28.8 mph N/A   Overcast
10:55 AM 25.2 °F 9.8 °F 10.4 °F 54% 29.92 in 10.0 mi WSW 24.2 mph 32.2 mph N/A   Overcast
11:15 AM 26.2 °F 11.2 °F 10.8 °F 52% 29.91 in 10.0 mi WSW 24.2 mph - N/A   Overcast
11:35 AM 27.5 °F 13.5 °F 12.2 °F 53% 29.89 in 10.0 mi WSW 21.9 mph 27.6 mph N/A   Overcast
11:55 AM 28.8 °F 14.6 °F 12.0 °F 50% 29.87 in 10.0 mi WSW 24.2 mph 28.8 mph N/A   Overcast
12:15 PM 30.7 °F 16.7 °F 12.9 °F 48% 29.86 in 10.0 mi WSW 26.5 mph 32.2 mph N/A   Overcast
12:35 PM 31.1 °F 17.7 °F 12.9 °F 47% 29.84 in 10.0 mi WSW 24.2 mph 29.9 mph N/A   Overcast
12:55 PM 31.8 °F 19.3 °F 13.3 °F 46% 29.82 in 10.0 mi WSW 21.9 mph 27.6 mph N/A   Overcast
1:15 PM 33.1 °F 20.6 °F 14.5 °F 47% 29.81 in 10.0 mi WSW 23.0 mph 27.6 mph N/A   Overcast
1:35 PM 34.3 °F 22.6 °F 14.7 °F 45% 29.80 in 10.0 mi WSW 21.9 mph 28.8 mph N/A   Overcast
1:55 PM 34.0 °F 21.5 °F 14.5 °F 45% 29.79 in 10.0 mi WSW 24.2 mph 28.8 mph N/A   Overcast
2:15 PM 34.7 °F 23.7 °F 14.5 °F 44% 29.77 in 10.0 mi WSW 19.6 mph - N/A   Overcast
2:35 PM 35.6 °F 25.5 °F 16.3 °F 46% 29.76 in 10.0 mi WSW 17.3 mph - N/A   Overcast
2:55 PM 35.8 °F 25.4 °F 16.0 °F 45% 29.75 in 10.0 mi WSW 18.4 mph - N/A   Mostly Cloudy
3:15 PM 36.3 °F 26.1 °F 16.3 °F 44% 29.74 in 10.0 mi WSW 18.4 mph 24.2 mph N/A   Scattered Clouds
3:35 PM 36.5 °F 27.4 °F 16.7 °F 45% 29.74 in 10.0 mi WSW 15.0 mph 24.2 mph N/A   Mostly Cloudy
3:55 PM 36.7 °F 28.4 °F 17.1 °F 45% 29.73 in 10.0 mi WSW 12.7 mph - N/A   Mostly Cloudy
4:15 PM 36.5 °F 27.8 °F 17.1 °F 45% 29.72 in 10.0 mi WSW 13.8 mph - N/A   Mostly Cloudy
4:35 PM 36.0 °F 27.1 °F 17.8 °F 48% 29.70 in 10.0 mi WSW 13.8 mph - N/A   Mostly Cloudy
4:55 PM 36.7 °F 28.0 °F 18.1 °F 47% 29.68 in 10.0 mi SW 13.8 mph - N/A   Overcast
5:15 PM 37.0 °F 28.5 °F 18.9 °F 48% 29.69 in 10.0 mi WSW 13.8 mph - N/A   Overcast
5:35 PM 37.2 °F 28.7 °F 19.4 °F 49% 29.67 in 10.0 mi SW 13.8 mph - N/A   Overcast
5:55 PM 37.0 °F 28.9 °F 20.1 °F 50% 29.66 in 10.0 mi SW 12.7 mph - N/A   Overcast
6:15 PM 37.6 °F 28.8 °F 19.9 °F 49% 29.66 in 10.0 mi SW 15.0 mph - N/A   Overcast
6:35 PM 37.8 °F 29.8 °F 20.1 °F 49% 29.66 in 10.0 mi WSW 12.7 mph - N/A   Overcast
6:55 PM 37.9 °F 30.0 °F 20.8 °F 50% 29.65 in 10.0 mi WSW 12.7 mph - N/A   Overcast
7:15 PM 39.0 °F 32.3 °F 22.8 °F 52% 29.65 in 10.0 mi WSW 10.4 mph - N/A   Overcast
7:35 PM 39.2 °F 32.0 °F 24.1 °F 55% 29.64 in 10.0 mi West 11.5 mph - N/A   Overcast
7:55 PM 39.2 °F 31.6 °F 24.4 °F 56% 29.63 in 10.0 mi West 12.7 mph - N/A   Overcast
8:15 PM 40.6 °F 32.3 °F 28.0 °F 61% 29.62 in 10.0 mi West 16.1 mph - N/A   Overcast
8:35 PM 40.3 °F 33.4 °F 30.0 °F 67% 29.61 in 10.0 mi West 11.5 mph - N/A   Overcast
8:55 PM 41.7 °F 34.1 °F 31.1 °F 66% 29.61 in 10.0 mi West 15.0 mph 24.2 mph N/A   Overcast
9:15 PM 43.0 °F 35.4 °F 32.0 °F 65% 29.60 in 10.0 mi WNW 16.1 mph 24.2 mph N/A   Overcast
9:35 PM 43.0 °F 35.7 °F 32.0 °F 65% 29.60 in 10.0 mi NW 15.0 mph 25.3 mph N/A   Overcast
9:55 PM 42.4 °F 35.7 °F 32.2 °F 67% 29.61 in 10.0 mi NW 12.7 mph - N/A   Overcast
10:15 PM 41.9 °F 33.7 °F 32.7 °F 70% 29.61 in 10.0 mi NW 17.3 mph 23.0 mph N/A   Overcast
10:35 PM 41.9 °F 33.4 °F 32.9 °F 70% 29.62 in 10.0 mi NW 18.4 mph 24.2 mph N/A   Overcast
10:55 PM 41.4 °F 33.3 °F 32.9 °F 72% 29.63 in 10.0 mi NW 16.1 mph 23.0 mph N/A   Overcast
11:15 PM 41.0 °F 31.9 °F 32.2 °F 71% 29.65 in 10.0 mi NW 19.6 mph 27.6 mph N/A   Overcast
11:35 PM 39.4 °F 29.5 °F 32.9 °F 78% 29.65 in 10.0 mi NNW 20.7 mph 28.8 mph N/A   Light Drizzle